[[{"header":{"parameterUnit":"m.s-1","parameterCategory":2,"la1":30.2991,"la2":30.254,"lo1":-89.0895,"lo2":-89.0444,"dy":0.0017,"dx":0.0017,"nx":28,"ny":28,"refTime":"2024-02-01T03:00:00:Z","depth":"0","parameterNumber":2,"parameterNumberName":"U-component_of_CURRENTS"},"data":[0,0,0,0,0,0,0,0,0,0,0,0,0,0,0,0,0,0,0,0,0,0,0,0,0,0,0,0,0,0,0,0,0,0,0,0,0,0,0,0,0,0,0,0,0,0,0,0,0,0,0,0,0,0,0,0,0,0,0.2137,0.2137,0,0.2118,0.2117,0.2117,0.2082,0.2081,0.208,0.2079,0.2155,0.2158,0.2161,0,0,0,0,0,0,0,0,0,0,0,0,0,0.2176,0.2176,0.2137,0.2137,0.2136,0.2118,0.2117,0.2117,0.2082,0.2081,0.208,0.2079,0.2154,0.2158,0.2161,0,0,0,0,0,0,0,0,0,0,0,0,0,0.216,0.2176,0.2137,0.2115,0.2113,0.2118,0.2117,0.2117,0.2082,0.2081,0.208,0.2079,0.2153,0.2157,0.2161,0.2211,0,0,0.2174,0.2176,0,0,0,0,0,0,0,0,0.2161,0.2158,0.2119,0.2117,0.2114,0.21,0.2159,0.2153,0.2082,0.2095,0.2079,0.2078,0.2146,0.215,0.215,0.2215,0.2218,0.2174,0.2177,0.2179,0.218,0,0,0,0,0,0,0,0.2162,0.2159,0.2131,0.2119,0.2116,0.2118,0.2114,0.2157,0.213,0.2094,0.2091,0.2087,0.2145,0.2146,0.2152,0.2219,0.2174,0.2178,0.2181,0.2182,0.2403,0.2407,0,0,0,0,0,0,0.2161,0.216,0.2131,0.213,0.2133,0.2118,0.2113,0.2107,0.2128,0.2128,0.2088,0.2086,0.2139,0.2147,0.2154,0.225,0.2179,0.2183,0.2185,0.24,0.2404,0.2408,0,0,0,0,0,0,0.2162,0.2158,0.2132,0.2144,0.214,0.2118,0.2111,0.2107,0.21,0.2122,0.2124,0.2084,0.2139,0.2148,0.2207,0.2251,0.2184,0.2188,0.2396,0.2401,0.2406,0.2419,0,0,0,0,0,0,0.2163,0.2159,0.2157,0.2144,0.2139,0.2148,0.2112,0.2107,0.2099,0.2095,0.212,0.2126,0.2138,0.2201,0.2211,0.2256,0.2192,0.2392,0.2398,0.2404,0.2414,0.2424,0.2432,0,0,0,0,0,0.2164,0.2171,0.2157,0.2154,0.2137,0.2149,0.2148,0.2129,0.21,0.2114,0.2131,0.2125,0.2249,0.2206,0.2218,0.2264,0.2389,0.2396,0.2404,0.241,0.2422,0.2432,0,0,0,0,0,0,0.2187,0.2167,0.2152,0.2151,0.2154,0.2142,0.2149,0.213,0.215,0.2145,0.2156,0.2165,0.225,0.226,0.2212,0.2354,0.2324,0.2334,0.2325,0.2336,0.2345,0.2352,0.2195,0,0,0,0,0,0.2191,0.219,0.2177,0.2179,0.218,0.2163,0.2162,0.215,0.2161,0.2165,0.2183,0.2223,0.2294,0.231,0.2376,0.2431,0.2457,0.2478,0.2486,0.2493,0.2513,0.2587,0.2603,0.2433,0.2433,0.2433,0,0,0.2199,0.219,0.2187,0.2184,0.2181,0.219,0.216,0.2166,0.2182,0.2177,0.2214,0.2264,0.2324,0.2403,0.244,0.2406,0.2557,0.2503,0.2508,0.2524,0.2596,0.2612,0.2627,0.2438,0.2437,0.2436,0,0,0.222,0.2208,0.2213,0.222,0.2218,0.2214,0.2215,0.221,0.2219,0.2263,0.2286,0.2358,0.2423,0.2485,0.2523,0.2623,0.262,0.2642,0.2665,0.2736,0.275,0.2762,0.2807,0.2823,0.2622,0.2622,0.2622,0,0.2229,0.2227,0.2222,0.2233,0.2236,0.2224,0.2235,0.2254,0.2271,0.2293,0.2283,0.2423,0.2474,0.2581,0.2625,0.2643,0.2665,0.2606,0.2743,0.2756,0.2769,0.2812,0.2829,0.2623,0.2623,0.2623,0.2623,0,0.225,0.2252,0.2262,0.2266,0.2278,0.229,0.2305,0.2329,0.2333,0.2347,0.245,0.2523,0.2599,0.264,0.2664,0.2786,0.2768,0.2758,0.2701,0.2786,0.2827,0.2845,0.2625,0.2625,0.2624,0.2624,0,0,0.2256,0.227,0.2273,0.2272,0.2292,0.2297,0.2347,0.2384,0.2404,0.2459,0.2507,0.2653,0.2674,0.2725,0.2769,0.2832,0.2948,0.2826,0.2829,0.2845,0.3084,0.3085,0.3105,0.2942,0.2946,0.2949,0.3071,0,0.227,0.2287,0.2297,0.2315,0.232,0.2339,0.2377,0.2414,0.2452,0.2503,0.2595,0.2668,0.2709,0.2744,0.2828,0.293,0.2999,0.2915,0.3024,0.3028,0.2998,0.3128,0.3122,0.3233,0.3089,0.3092,0.3094,0,0.228,0.2288,0.2305,0.232,0.2324,0.2338,0.2382,0.2415,0.2498,0.2531,0.2618,0.2675,0.2818,0.2819,0.3027,0.2962,0.3042,0.3103,0.3108,0.3122,0.3065,0.3133,0.3271,0.3167,0.3122,0.3119,0.3118,0,0.2267,0.229,0.2297,0.2304,0.2327,0.2344,0.2358,0.2421,0.245,0.2545,0.2577,0.2726,0.2801,0.2938,0.309,0.3059,0.329,0.3253,0.3327,0.3325,0.3354,0.335,0.3389,0.3404,0.3404,0.3403,0.3403,0,0.2269,0.2271,0.2286,0.2287,0.2289,0.2318,0.2337,0.2375,0.2441,0.2482,0.2583,0.2657,0.2835,0.2978,0.3105,0.3289,0.3309,0.3378,0.3382,0.3359,0.3354,0.329,0.3216,0.3408,0.3407,0.3406,0.3405,0,0.2247,0.2262,0.2258,0.2276,0.2277,0.2274,0.2295,0.2315,0.2381,0.2445,0.2476,0.2628,0.2815,0.2986,0.3212,0.3304,0.3405,0.3521,0.3473,0.347,0.3426,0.3353,0.3291,0.3238,0.3628,0.363,0.3631,0,0.2237,0.2232,0.223,0.2217,0.2219,0.222,0.2221,0.2275,0.2306,0.2433,0.2469,0.2647,0.2783,0.3103,0.3319,0.3544,0.3432,0.3636,0.3599,0.3464,0.3386,0.3195,0.3141,0.3637,0.3638,0.3639,0.3639,0,0.2202,0.2197,0.2189,0.2163,0.2153,0.214,0.2156,0.2173,0.2255,0.232,0.2433,0.2546,0.2869,0.3094,0.3383,0.3547,0.3482,0.3657,0.355,0.3446,0.3212,0.3148,0.348,0.3646,0.3646,0.3645,0.3645,0.3644,0.2162,0.214,0.2122,0.209,0.2074,0.2052,0.2032,0.2086,0.2124,0.2222,0.2367,0.2528,0.2888,0.3304,0.3426,0.3631,0.3516,0.3613,0.3552,0.3381,0.3286,0.3622,0.3762,0.3762,0.3762,0.3762,0.3762,0,0.2092,0.2072,0.2046,0.1995,0.1947,0.1967,0.1974,0.1963,0.1996,0.2152,0.226,0.2606,0.2914,0.322,0.3573,0.3539,0.3435,0.3463,0.3207,0.3176,0.3541,0.3498,0.3546,0.3546,0.3546,0.3546,0.3546,0.3546,0.2053,0.2001,0.1984,0.1877,0.184,0.1769,0.176,0.178,0.1869,0.2009,0.2176,0.2337,0.2736,0.3162,0.3364,0.3361,0.3151,0.3032,0.2948,0.3217,0.3224,0.3231,0.3174,0.3154,0.3153,0.2538,0.2533,0.253]},{"header":{"parameterUnit":"m.s-1","parameterCategory":2,"la1":30.2991,"la2":30.254,"lo1":-89.0895,"lo2":-89.0444,"dy":0.0017,"dx":0.0017,"nx":28,"ny":28,"refTime":"2024-02-01T03:00:00:Z","depth":"0","parameterNumber":3,"parameterNumberName":"V-component_of_CURRENTS"},"data":[0,0,0,0,0,0,0,0,0,0,0,0,0,0,0,0,0,0,0,0,0,0,0,0,0,0,0,0,0,0,0,0,0,0,0,0,0,0,0,0,0,0,0,0,0,0,0,0,0,0,0,0,0,0,0,0,0,0,0.0454,0.0454,0,0.0382,0.0381,0.038,0.0298,0.0297,0.0295,0.0294,0.0228,0.0228,0.0227,0,0,0,0,0,0,0,0,0,0,0,0,0,0.0536,0.0535,0.0455,0.0454,0.0453,0.0382,0.0381,0.038,0.0298,0.0297,0.0295,0.0293,0.0228,0.0228,0.0227,0,0,0,0,0,0,0,0,0,0,0,0,0,0.0487,0.0534,0.0455,0.0402,0.0397,0.0382,0.0381,0.038,0.0299,0.0297,0.0295,0.0293,0.0229,0.0228,0.0227,0.0262,0,0,0.0225,0.0224,0,0,0,0,0,0,0,0,0.0489,0.0484,0.0411,0.0406,0.04,0.0346,0.0385,0.0341,0.0299,0.0337,0.0294,0.0292,0.0269,0.0265,0.0257,0.0259,0.0256,0.0225,0.0224,0.0224,0.0224,0,0,0,0,0,0,0,0.0493,0.0487,0.0427,0.041,0.0403,0.0387,0.0378,0.0377,0.0316,0.0334,0.0327,0.0318,0.0266,0.0258,0.0255,0.0255,0.0225,0.0224,0.0224,0.0223,0.0335,0.0338,0,0,0,0,0,0,0.0501,0.049,0.0429,0.0425,0.0439,0.0387,0.0377,0.0366,0.0316,0.0306,0.032,0.0314,0.026,0.0256,0.0252,0.0317,0.0224,0.0223,0.0223,0.0331,0.0335,0.0339,0,0,0,0,0,0,0.0503,0.0496,0.0432,0.0455,0.0445,0.0387,0.0376,0.0366,0.0352,0.0305,0.0295,0.0316,0.0259,0.0253,0.0273,0.0313,0.0223,0.0222,0.0327,0.0332,0.0337,0.043,0,0,0,0,0,0,0.0506,0.0498,0.0498,0.0455,0.0444,0.0429,0.0378,0.0366,0.0349,0.0341,0.0299,0.0291,0.0257,0.0275,0.0272,0.031,0.0222,0.0323,0.033,0.0336,0.0422,0.0437,0.045,0,0,0,0,0,0.0509,0.0508,0.0499,0.0491,0.0445,0.0429,0.0423,0.0376,0.0351,0.0355,0.0341,0.0292,0.0314,0.0277,0.0273,0.0311,0.032,0.0328,0.0335,0.0416,0.0435,0.045,0,0,0,0,0,0,0.0527,0.0498,0.0487,0.0473,0.0459,0.0415,0.0408,0.0387,0.0378,0.0372,0.0329,0.0322,0.0359,0.0335,0.0295,0.0369,0.0312,0.032,0.0375,0.0392,0.0406,0.0421,0.0221,0,0,0,0,0,0.0539,0.0536,0.0509,0.0499,0.0495,0.046,0.0449,0.0425,0.0408,0.0399,0.0377,0.0372,0.0392,0.0388,0.0396,0.0429,0.0393,0.0458,0.0472,0.0484,0.0499,0.0492,0.0505,0.0364,0.0364,0.0364,0,0,0.0538,0.0526,0.0519,0.0505,0.0487,0.0491,0.0448,0.0438,0.0455,0.0399,0.0419,0.042,0.0417,0.0458,0.0472,0.0436,0.0504,0.0493,0.0503,0.0512,0.0501,0.0514,0.0526,0.0369,0.0369,0.0368,0,0,0.0532,0.0532,0.0526,0.0531,0.052,0.0514,0.0518,0.0495,0.0499,0.0527,0.0507,0.0542,0.0542,0.0561,0.0569,0.0672,0.0585,0.0668,0.0737,0.073,0.074,0.0749,0.0703,0.0707,0.0666,0.0666,0.0666,0,0.0528,0.0528,0.0523,0.0529,0.0542,0.0531,0.0544,0.0556,0.0548,0.0582,0.0546,0.0609,0.06,0.0675,0.071,0.0702,0.066,0.0664,0.0744,0.0752,0.0759,0.071,0.0713,0.0671,0.0671,0.067,0.067,0,0.0521,0.0533,0.0535,0.055,0.057,0.0583,0.0608,0.0643,0.0654,0.067,0.0747,0.0748,0.0784,0.0796,0.0779,0.0848,0.0788,0.0763,0.0689,0.0778,0.0721,0.0723,0.0679,0.0677,0.0676,0.0674,0,0,0.0481,0.0521,0.0523,0.0557,0.0592,0.0612,0.0676,0.0741,0.0803,0.0816,0.0889,0.0941,0.0943,0.0956,0.0946,0.0944,0.0957,0.0875,0.0872,0.0808,0.0901,0.088,0.0878,0.0926,0.0927,0.0929,0.0832,0,0.0477,0.0507,0.0533,0.0591,0.0621,0.0675,0.0744,0.0813,0.087,0.0943,0.098,0.1037,0.1002,0.1023,0.1026,0.0991,0.0968,0.0983,0.0843,0.0839,0.0793,0.0883,0.0925,0.0845,0.0832,0.0832,0.0833,0,0.0466,0.0499,0.0545,0.0651,0.067,0.0712,0.0854,0.0912,0.1027,0.1072,0.1139,0.1153,0.1201,0.1136,0.1103,0.1104,0.1014,0.0961,0.0955,0.0909,0.0824,0.0761,0.0847,0.0679,0.0834,0.0834,0.0833,0,0.0462,0.0521,0.0572,0.0601,0.0702,0.0761,0.0827,0.0953,0.1039,0.115,0.1211,0.1256,0.1274,0.1207,0.1122,0.1101,0.1045,0.0997,0.0886,0.088,0.0879,0.0872,0.0775,0.0947,0.0947,0.0947,0.0948,0,0.0469,0.0513,0.0575,0.0609,0.0707,0.0773,0.09,0.0983,0.1109,0.1225,0.1267,0.1344,0.1288,0.1259,0.1153,0.1041,0.1064,0.092,0.0875,0.0912,0.091,0.0734,0.0627,0.0944,0.0944,0.0945,0.0946,0,0.0466,0.0497,0.0568,0.0666,0.0705,0.0778,0.0931,0.1037,0.1137,0.1284,0.1319,0.1401,0.1383,0.1304,0.1193,0.108,0.0878,0.0905,0.094,0.0903,0.0658,0.0556,0.0445,0.0317,0.0781,0.078,0.078,0,0.047,0.0497,0.0598,0.0653,0.0699,0.0811,0.0911,0.104,0.1159,0.1325,0.1403,0.1431,0.1493,0.1337,0.1171,0.0997,0.0834,0.0863,0.0855,0.0673,0.0524,0.0484,0.038,0.0869,0.0869,0.0869,0.0869,0,0.0488,0.0514,0.0576,0.0681,0.0777,0.0904,0.1045,0.1135,0.1302,0.1415,0.1554,0.1607,0.1507,0.1414,0.1182,0.1036,0.0757,0.0858,0.0678,0.0608,0.0552,0.0398,0.0861,0.087,0.087,0.087,0.087,0.087,0.0504,0.055,0.0629,0.0737,0.0848,0.1003,0.1116,0.1261,0.1431,0.1629,0.1659,0.178,0.167,0.1405,0.1129,0.0744,0.0714,0.0628,0.052,0.0497,0.039,0.0842,0.0799,0.0799,0.0799,0.0798,0.0798,0,0.0535,0.0597,0.0691,0.0834,0.0967,0.1025,0.1227,0.1348,0.1531,0.1712,0.1838,0.1955,0.168,0.1379,0.0922,0.0527,0.0355,0.0297,0.0246,0.0149,0.057,0.059,0.0491,0.0492,0.0492,0.0492,0.0492,0.0492,0.0558,0.0651,0.0708,0.0921,0.1028,0.1224,0.1342,0.1496,0.166,0.1915,0.2083,0.2201,0.2163,0.1211,0.051,0.0254,-0.0085,-0.0122,-0.0341,-0.0051,-0.0028,-0.0006,-0.0011,-0.0234,-0.0235,-0.0686,-0.0691,-0.0695]}],[{"header":{"parameterUnit":"m.s-1","parameterCategory":2,"la1":30.2991,"la2":30.254,"lo1":-89.0895,"lo2":-89.0444,"dy":0.0017,"dx":0.0017,"nx":28,"ny":28,"refTime":"2024-02-01T03:00:00:Z","depth":"2","parameterNumber":2,"parameterNumberName":"U-component_of_CURRENTS"},"data":[0,0,0,0,0,0,0,0,0,0,0,0,0,0,0,0,0,0,0,0,0,0,0,0,0,0,0,0,0,0,0,0,0,0,0,0,0,0,0,0,0,0,0,0,0,0,0,0,0,0,0,0,0,0,0,0,0,0,0.1241,0.1241,0,0.1254,0.1254,0.1254,0.1254,0.1254,0.1254,0.1255,0.1205,0.1204,0.1202,0,0,0,0,0,0,0,0,0,0,0,0,0,0.1154,0.1156,0.124,0.1241,0.1242,0.1255,0.1254,0.1254,0.1254,0.1254,0.1254,0.1255,0.1206,0.1204,0.1202,0,0,0,0,0,0,0,0,0,0,0,0,0,0.1177,0.1156,0.124,0.1248,0.1249,0.1255,0.1254,0.1254,0.1254,0.1254,0.1255,0.1255,0.1206,0.1204,0.1202,0.1176,0,0,0.1194,0.1193,0,0,0,0,0,0,0,0,0.1176,0.1179,0.1246,0.1247,0.1249,0.1258,0.1206,0.1227,0.1253,0.1246,0.1255,0.1255,0.122,0.1217,0.1211,0.1174,0.1172,0.1194,0.1192,0.1191,0.1191,0,0,0,0,0,0,0,0.1174,0.1178,0.124,0.1247,0.1248,0.123,0.1234,0.1209,0.1224,0.1246,0.1248,0.1258,0.122,0.1213,0.121,0.1171,0.1194,0.1192,0.119,0.1189,0.1181,0.1183,0,0,0,0,0,0,0.1187,0.1177,0.124,0.1241,0.1219,0.1232,0.1236,0.125,0.1226,0.1225,0.1258,0.1258,0.1217,0.1213,0.1208,0.1215,0.1191,0.1189,0.1188,0.118,0.1182,0.1183,0,0,0,0,0,0,0.1185,0.1192,0.1239,0.1214,0.1219,0.1234,0.1249,0.125,0.1253,0.1237,0.1233,0.1262,0.1217,0.1211,0.1201,0.1212,0.1188,0.1186,0.1179,0.1181,0.1182,0.1205,0,0,0,0,0,0,0.1182,0.1192,0.1201,0.1215,0.1222,0.1247,0.1249,0.125,0.1261,0.1262,0.1239,0.1234,0.1217,0.1205,0.1198,0.1208,0.1184,0.1177,0.118,0.1182,0.1202,0.1207,0.1211,0,0,0,0,0,0.1179,0.1193,0.1201,0.1209,0.1236,0.1248,0.1249,0.1256,0.1261,0.126,0.1253,0.1235,0.1216,0.1203,0.1195,0.1205,0.1176,0.1179,0.1182,0.12,0.1206,0.1211,0,0,0,0,0,0,0.1154,0.1196,0.1205,0.1229,0.1241,0.125,0.1254,0.126,0.1254,0.1256,0.1237,0.1232,0.123,0.1218,0.1204,0.1215,0.1199,0.12,0.1215,0.1221,0.1225,0.1231,0.1182,0,0,0,0,0,0.1156,0.1179,0.1207,0.1222,0.1233,0.1244,0.1249,0.1257,0.1259,0.1257,0.1243,0.1237,0.1235,0.1228,0.1218,0.1211,0.1233,0.122,0.1224,0.1228,0.1231,0.1275,0.1283,0.1192,0.1192,0.1192,0,0,0.1148,0.1175,0.1186,0.1219,0.1228,0.1236,0.1247,0.1261,0.1265,0.1251,0.1244,0.1245,0.1237,0.1238,0.1237,0.1227,0.1271,0.1231,0.1234,0.1236,0.1278,0.1287,0.1295,0.1194,0.1194,0.1194,0,0,0.1138,0.117,0.1182,0.1198,0.1226,0.1235,0.1243,0.1258,0.1263,0.1262,0.1263,0.1274,0.1254,0.126,0.126,0.1283,0.1293,0.1286,0.1306,0.1349,0.1356,0.1363,0.1426,0.1438,0.1287,0.1288,0.1288,0,0.1125,0.115,0.1183,0.1197,0.1213,0.1236,0.1244,0.125,0.1257,0.127,0.1264,0.1278,0.1267,0.1285,0.1299,0.129,0.1326,0.1282,0.1354,0.1361,0.1368,0.143,0.1443,0.1289,0.1289,0.1289,0.1288,0,0.1124,0.1142,0.1151,0.118,0.1198,0.1211,0.1237,0.1249,0.1262,0.1275,0.13,0.1296,0.1314,0.1315,0.1309,0.1356,0.1372,0.1354,0.1337,0.1378,0.1441,0.1454,0.1291,0.129,0.129,0.129,0,0,0.1087,0.1141,0.114,0.116,0.1196,0.1214,0.123,0.1259,0.129,0.1293,0.1332,0.1331,0.1353,0.1356,0.136,0.1391,0.1472,0.1396,0.1397,0.1453,0.1593,0.1593,0.1608,0.1469,0.1471,0.1473,0.1627,0,0.1069,0.1101,0.1129,0.1149,0.117,0.1207,0.1228,0.1262,0.1293,0.1334,0.1352,0.1387,0.1362,0.1391,0.1415,0.1459,0.1505,0.1434,0.155,0.1554,0.1543,0.1621,0.1397,0.1514,0.164,0.1642,0.1643,0,0.1047,0.108,0.1107,0.1163,0.1176,0.1195,0.1261,0.1284,0.1347,0.1376,0.1415,0.1441,0.1492,0.1467,0.1558,0.1518,0.1563,0.159,0.1597,0.1595,0.1577,0.149,0.1533,0.1665,0.1664,0.1662,0.1661,0,0.1014,0.1056,0.1087,0.1105,0.1172,0.12,0.1235,0.13,0.1346,0.142,0.1473,0.1517,0.1571,0.1611,0.1674,0.1629,0.1788,0.173,0.1776,0.1777,0.1607,0.159,0.1809,0.1808,0.1808,0.1808,0.1807,0,0.0987,0.1005,0.1082,0.1102,0.1153,0.1202,0.1266,0.1308,0.1392,0.1468,0.1504,0.1581,0.1612,0.1702,0.1726,0.1814,0.1838,0.1805,0.1821,0.1612,0.1595,0.1728,0.1717,0.1813,0.1812,0.1811,0.181,0,0.0949,0.0988,0.1035,0.1115,0.1141,0.1186,0.1286,0.1345,0.1418,0.1523,0.1558,0.166,0.179,0.1842,0.1941,0.1901,0.1969,0.1997,0.1766,0.1751,0.1913,0.1901,0.2046,0.2047,0.2048,0.2049,0.205,0,0.0938,0.0961,0.105,0.1093,0.1134,0.1207,0.1269,0.1349,0.1423,0.158,0.1641,0.1796,0.1886,0.2034,0.1995,0.2048,0.2104,0.1891,0.1746,0.194,0.194,0.1926,0.1913,0.154,0.1536,0.1534,0.1531,0,0.0935,0.0968,0.1017,0.1103,0.1172,0.1242,0.1334,0.1385,0.1502,0.1595,0.1742,0.1821,0.1937,0.1882,0.1943,0.1929,0.1849,0.1838,0.2112,0.1518,0.1476,0.1472,0.1473,0.1506,0.1509,0.1511,0.1512,0.1513,0.0945,0.0978,0.1051,0.1124,0.1198,0.1267,0.1304,0.1406,0.1501,0.1573,0.1712,0.1732,0.1729,0.1686,0.169,0.1668,0.1776,0.1662,0.1664,0.1671,0.1588,0.1551,0.1582,0.1585,0.1587,0.1589,0.1591,0,0.0968,0.1009,0.1075,0.1152,0.121,0.1259,0.1348,0.1351,0.1433,0.1468,0.1537,0.1379,0.1355,0.1411,0.1302,0.131,0.122,0.1299,0.1149,0.1175,0.1197,0.1084,0.0947,0.0946,0.0945,0.0944,0,0,0.0988,0.1039,0.1063,0.114,0.1198,0.1247,0.128,0.1279,0.1279,0.1203,0.1153,0.1181,0.1277,0.1052,0.1056,0.1,0.107,0.0953,0.1457,0.1299,0.132,0.1389,0.1243,0,0,0,0,0]},{"header":{"parameterUnit":"m.s-1","parameterCategory":2,"la1":30.2991,"la2":30.254,"lo1":-89.0895,"lo2":-89.0444,"dy":0.0017,"dx":0.0017,"nx":28,"ny":28,"refTime":"2024-02-01T03:00:00:Z","depth":"2","parameterNumber":3,"parameterNumberName":"V-component_of_CURRENTS"},"data":[0,0,0,0,0,0,0,0,0,0,0,0,0,0,0,0,0,0,0,0,0,0,0,0,0,0,0,0,0,0,0,0,0,0,0,0,0,0,0,0,0,0,0,0,0,0,0,0,0,0,0,0,0,0,0,0,0,0,-0.0493,-0.0493,0,-0.0516,-0.0517,-0.0517,-0.0536,-0.0537,-0.0537,-0.0537,-0.0569,-0.057,-0.057,0,0,0,0,0,0,0,0,0,0,0,0,0,-0.0484,-0.0484,-0.0493,-0.0493,-0.0494,-0.0516,-0.0517,-0.0517,-0.0536,-0.0537,-0.0537,-0.0537,-0.0569,-0.0569,-0.057,0,0,0,0,0,0,0,0,0,0,0,0,0,-0.0496,-0.0484,-0.0493,-0.0505,-0.0507,-0.0516,-0.0517,-0.0517,-0.0536,-0.0537,-0.0537,-0.0537,-0.0568,-0.0569,-0.057,-0.0573,0,0,-0.0574,-0.0574,0,0,0,0,0,0,0,0,-0.0496,-0.0497,-0.0503,-0.0505,-0.0506,-0.0523,-0.0525,-0.0536,-0.0536,-0.0526,-0.0537,-0.0537,-0.0554,-0.0556,-0.0561,-0.0574,-0.0576,-0.0574,-0.0575,-0.0575,-0.0575,0,0,0,0,0,0,0,-0.0495,-0.0496,-0.0503,-0.0504,-0.0505,-0.0516,-0.0518,-0.0527,-0.0539,-0.0527,-0.0528,-0.0529,-0.0555,-0.056,-0.0562,-0.0576,-0.0574,-0.0575,-0.0575,-0.0576,-0.0621,-0.0622,0,0,0,0,0,0,-0.0489,-0.0495,-0.0502,-0.0504,-0.05,-0.0516,-0.0518,-0.0518,-0.0539,-0.0542,-0.0529,-0.053,-0.0558,-0.056,-0.0563,-0.0586,-0.0575,-0.0576,-0.0577,-0.0621,-0.0621,-0.0622,0,0,0,0,0,0,-0.0489,-0.049,-0.0501,-0.0499,-0.0502,-0.0516,-0.0516,-0.0518,-0.0529,-0.054,-0.0544,-0.0538,-0.0558,-0.0561,-0.0584,-0.0587,-0.0576,-0.0577,-0.062,-0.0621,-0.0622,-0.062,0,0,0,0,0,0,-0.0488,-0.0489,-0.0494,-0.0499,-0.0502,-0.051,-0.0515,-0.0519,-0.0529,-0.0531,-0.0549,-0.0552,-0.0558,-0.0583,-0.0585,-0.0588,-0.0578,-0.0619,-0.062,-0.0621,-0.0619,-0.0621,-0.0622,0,0,0,0,0,-0.0488,-0.0486,-0.0494,-0.0496,-0.0506,-0.051,-0.0513,-0.0524,-0.0529,-0.0535,-0.0553,-0.0552,-0.0591,-0.0584,-0.0587,-0.059,-0.0619,-0.062,-0.0621,-0.0619,-0.062,-0.0622,0,0,0,0,0,0,-0.048,-0.0488,-0.0497,-0.0498,-0.0507,-0.0513,-0.0518,-0.0526,-0.0545,-0.0549,-0.0561,-0.0565,-0.0585,-0.0591,-0.0583,-0.0607,-0.0603,-0.0605,-0.0601,-0.0602,-0.0603,-0.0588,-0.0579,0,0,0,0,0,-0.0482,-0.0484,-0.0495,-0.0495,-0.05,-0.0512,-0.0517,-0.0525,-0.0538,-0.0546,-0.0563,-0.0579,-0.0591,-0.06,-0.0613,-0.0627,-0.0622,-0.0631,-0.0632,-0.0633,-0.0623,-0.0632,-0.0633,-0.0626,-0.0626,-0.0626,0,0,-0.0477,-0.0482,-0.0483,-0.0494,-0.0502,-0.0504,-0.0516,-0.0523,-0.0529,-0.0546,-0.0568,-0.0585,-0.0597,-0.0614,-0.0623,-0.062,-0.0632,-0.0635,-0.0635,-0.0625,-0.0633,-0.0634,-0.0634,-0.0627,-0.0627,-0.0627,0,0,-0.0459,-0.0475,-0.047,-0.0481,-0.0494,-0.0502,-0.0505,-0.0522,-0.0537,-0.0559,-0.0572,-0.0593,-0.0617,-0.0625,-0.063,-0.0646,-0.0639,-0.0652,-0.0644,-0.0653,-0.0653,-0.0653,-0.0641,-0.064,-0.0652,-0.0652,-0.0652,0,-0.0453,-0.0449,-0.0469,-0.0469,-0.0474,-0.05,-0.0496,-0.0514,-0.0539,-0.0548,-0.0566,-0.0599,-0.0619,-0.0623,-0.0636,-0.0647,-0.0644,-0.0636,-0.0653,-0.0653,-0.0654,-0.0641,-0.0639,-0.0652,-0.0652,-0.0652,-0.0652,0,-0.0432,-0.0435,-0.0432,-0.0442,-0.0452,-0.0454,-0.0479,-0.0496,-0.0521,-0.0539,-0.0563,-0.0595,-0.0609,-0.0624,-0.0638,-0.0646,-0.064,-0.0654,-0.0646,-0.0654,-0.064,-0.0639,-0.0652,-0.0652,-0.0652,-0.0652,0,0,-0.0395,-0.0413,-0.0412,-0.0408,-0.0439,-0.0435,-0.0456,-0.0472,-0.0467,-0.052,-0.0518,-0.0566,-0.0585,-0.0593,-0.0613,-0.0629,-0.0637,-0.0644,-0.0644,-0.0623,-0.064,-0.0594,-0.0588,-0.0656,-0.0656,-0.0656,-0.0627,0,-0.037,-0.0356,-0.038,-0.0367,-0.036,-0.0396,-0.0404,-0.0427,-0.0453,-0.0464,-0.0511,-0.0519,-0.0572,-0.0572,-0.0603,-0.0622,-0.0636,-0.0643,-0.0642,-0.0641,-0.0593,-0.0586,-0.0584,-0.0554,-0.0626,-0.0626,-0.0625,0,-0.0338,-0.0332,-0.0315,-0.0317,-0.0317,-0.0318,-0.0322,-0.0334,-0.0366,-0.0387,-0.042,-0.0454,-0.0487,-0.0529,-0.0575,-0.0577,-0.061,-0.0632,-0.0631,-0.0585,-0.0592,-0.056,-0.0549,-0.0623,-0.0624,-0.0624,-0.0624,0,-0.0281,-0.0283,-0.0263,-0.0267,-0.0278,-0.0276,-0.0283,-0.0307,-0.0299,-0.0331,-0.0319,-0.0383,-0.0389,-0.0455,-0.0517,-0.0546,-0.0552,-0.0596,-0.0582,-0.0578,-0.0573,-0.0568,-0.0626,-0.0626,-0.0626,-0.0626,-0.0626,0,-0.0235,-0.0216,-0.0232,-0.0217,-0.0185,-0.022,-0.0188,-0.0205,-0.0214,-0.0178,-0.0269,-0.0236,-0.0373,-0.0399,-0.0479,-0.0508,-0.0523,-0.0567,-0.0567,-0.0571,-0.0567,-0.0628,-0.0629,-0.0625,-0.0625,-0.0625,-0.0626,0,-0.0163,-0.0182,-0.0149,-0.0155,-0.0153,-0.0126,-0.0117,-0.0087,-0.0111,-0.0063,-0.0066,-0.012,-0.0144,-0.0258,-0.034,-0.0427,-0.0478,-0.0487,-0.0469,-0.0468,-0.0512,-0.0513,-0.0476,-0.0474,-0.0472,-0.0471,-0.047,0,-0.0121,-0.01,-0.0086,-0.0062,-0.006,-0.0034,-0.0007,-0.0029,0.001,0.0035,0.0078,0.0054,0.0087,-0.002,-0.0197,-0.0314,-0.0372,-0.0396,-0.046,-0.0492,-0.0496,-0.05,-0.0503,-0.0454,-0.0453,-0.0452,-0.0451,0,-0.0036,-0.0036,-0.0008,0.0038,0.007,0.0113,0.0148,0.0197,0.0198,0.0264,0.036,0.0392,0.0264,0.0137,-0.0063,-0.0158,-0.0385,-0.0377,-0.0413,-0.0485,-0.0467,-0.0473,-0.0478,-0.0443,-0.0444,-0.0444,-0.0445,-0.0445,0.0033,0.007,0.0097,0.0146,0.0188,0.0259,0.0322,0.0393,0.0498,0.0608,0.0605,0.0647,0.0396,0.0167,-0.0011,-0.0246,-0.026,-0.0369,-0.0374,-0.038,-0.0375,-0.0354,-0.0307,-0.0307,-0.0307,-0.0307,-0.0307,0,0.0116,0.0144,0.0199,0.0261,0.0333,0.0323,0.0428,0.0529,0.0704,0.077,0.0882,0.069,0.0528,0.0252,-0.0086,-0.0266,-0.0316,-0.032,-0.0374,-0.038,-0.0387,-0.0385,-0.0319,-0.0319,-0.0319,-0.032,0,0,0.016,0.0227,0.0251,0.0375,0.042,0.053,0.0603,0.078,0.0862,0.0984,0.0963,0.0929,0.0563,0.0314,0.0046,-0.0137,-0.0204,-0.0159,-0.0134,-0.0172,-0.0175,-0.0403,-0.0405,0,0,0,0,0]}],[{"header":{"parameterUnit":"m.s-1","parameterCategory":2,"la1":30.2991,"la2":30.254,"lo1":-89.0895,"lo2":-89.0444,"dy":0.0017,"dx":0.0017,"nx":28,"ny":28,"refTime":"2024-02-01T03:00:00:Z","depth":"4","parameterNumber":2,"parameterNumberName":"U-component_of_CURRENTS"},"data":[0,0,0,0,0,0,0,0,0,0,0,0,0,0,0,0,0,0,0,0,0,0,0,0,0,0,0,0,0,0,0,0,0,0,0,0,0,0,0,0,0,0,0,0,0,0,0,0,0,0,0,0,0,0,0,0,0,0,0.0289,0.0288,0,0.0319,0.032,0.0322,0.0401,0.0402,0.0402,0.0403,0.0529,0.0532,0.0535,0,0,0,0,0,0,0,0,0,0,0,0,0,0.0323,0.0323,0.0289,0.0288,0.0287,0.0319,0.032,0.0322,0.0401,0.0402,0.0402,0.0403,0.0528,0.0532,0.0535,0,0,0,0,0,0,0,0,0,0,0,0,0,0.0339,0.0323,0.0289,0.0321,0.0323,0.0318,0.032,0.0323,0.0401,0.0402,0.0402,0.0403,0.0527,0.0531,0.0536,0.0549,0,0,0.0549,0.0551,0,0,0,0,0,0,0,0,0.0338,0.0339,0.0317,0.0318,0.0321,0.0345,0.0378,0.0398,0.0401,0.0385,0.0403,0.0403,0.0467,0.0477,0.0499,0.0555,0.056,0.055,0.0552,0.0554,0.0555,0,0,0,0,0,0,0,0.0337,0.0338,0.0315,0.0316,0.0318,0.034,0.0345,0.0383,0.0434,0.0387,0.0389,0.0371,0.0471,0.0494,0.0502,0.0562,0.0549,0.0553,0.0556,0.0558,0.0706,0.0707,0,0,0,0,0,0,0.0304,0.0337,0.0313,0.0314,0.0316,0.0338,0.0343,0.0348,0.0432,0.0441,0.037,0.0374,0.0486,0.0497,0.0507,0.0629,0.0554,0.0558,0.0561,0.0704,0.0706,0.0707,0,0,0,0,0,0,0.0305,0.0303,0.0312,0.0314,0.0315,0.0335,0.034,0.0347,0.0421,0.0416,0.043,0.044,0.0487,0.0501,0.0558,0.0631,0.056,0.0564,0.0703,0.0705,0.0707,0.0809,0,0,0,0,0,0,0.0307,0.0304,0.0309,0.0313,0.0313,0.0332,0.0338,0.0347,0.0399,0.0407,0.0479,0.0488,0.0489,0.0551,0.0562,0.0636,0.0568,0.0701,0.0704,0.0706,0.0804,0.0814,0.0823,0,0,0,0,0,0.0308,0.0299,0.0309,0.0306,0.0316,0.0332,0.0338,0.0361,0.0402,0.0436,0.0472,0.0489,0.0575,0.0555,0.0568,0.0645,0.07,0.0703,0.0706,0.0799,0.0812,0.0822,0,0,0,0,0,0,0.0308,0.0305,0.0317,0.0307,0.0329,0.0341,0.0351,0.0396,0.0457,0.0472,0.0503,0.0514,0.0595,0.0594,0.0572,0.0689,0.0642,0.0648,0.0709,0.0721,0.073,0.0722,0.0571,0,0,0,0,0,0.0307,0.0313,0.0316,0.0315,0.0321,0.0359,0.0375,0.0403,0.0438,0.047,0.0517,0.056,0.0609,0.0644,0.0671,0.0738,0.0708,0.0793,0.0803,0.0811,0.081,0.0794,0.0802,0.0717,0.0717,0.0717,0,0,0.0305,0.03,0.0305,0.0317,0.0333,0.0357,0.0376,0.0408,0.0452,0.0471,0.0556,0.06,0.0631,0.0699,0.0737,0.0716,0.0824,0.0815,0.0822,0.0816,0.0797,0.0806,0.0813,0.0719,0.0718,0.0718,0,0,0.0298,0.0304,0.0314,0.0332,0.035,0.0372,0.0399,0.0446,0.0493,0.0569,0.0595,0.0666,0.0749,0.0774,0.0803,0.0879,0.0872,0.0916,0.097,0.0956,0.0962,0.0968,0.0959,0.0963,0.0924,0.0924,0.0924,0,0.0303,0.0309,0.032,0.0333,0.0345,0.0392,0.0422,0.0469,0.0538,0.0579,0.0603,0.0735,0.0778,0.0856,0.0899,0.0905,0.0896,0.0932,0.0968,0.0973,0.0976,0.0966,0.0969,0.0929,0.0929,0.0928,0.0928,0,0.0302,0.0319,0.0322,0.0361,0.0385,0.0412,0.0457,0.0512,0.0587,0.0644,0.0752,0.0801,0.0882,0.0924,0.0955,0.1026,0.1012,0.0981,0.0941,0.0991,0.0977,0.0978,0.0937,0.0935,0.0933,0.0932,0,0,0.0298,0.0322,0.033,0.0351,0.0405,0.0423,0.0488,0.056,0.0616,0.0713,0.0796,0.0914,0.0971,0.1004,0.105,0.1061,0.1114,0.1061,0.1058,0.1056,0.1098,0.1039,0.1034,0.1099,0.11,0.11,0.1084,0,0.031,0.033,0.0349,0.0396,0.0415,0.0463,0.0512,0.0586,0.067,0.0756,0.0843,0.0939,0.0993,0.1056,0.1087,0.1113,0.1119,0.1121,0.1046,0.1043,0.0986,0.1033,0.1101,0.1085,0.1085,0.1085,0.1085,0,0.0311,0.0327,0.0363,0.0407,0.0421,0.0463,0.0543,0.0599,0.0713,0.0785,0.0898,0.097,0.1074,0.1077,0.1136,0.1145,0.1141,0.113,0.1128,0.1033,0.0986,0.1017,0.1086,0.1086,0.1086,0.1086,0.1086,0,0.0295,0.0338,0.0367,0.0384,0.0441,0.0478,0.0527,0.0623,0.0689,0.0816,0.0886,0.0995,0.1069,0.1085,0.1141,0.1144,0.1154,0.1131,0.1054,0.1049,0.1061,0.1054,0.1116,0.1116,0.1116,0.1116,0.1116,0,0.0292,0.0315,0.0364,0.0381,0.0425,0.0474,0.0554,0.0608,0.0722,0.0798,0.0918,0.0982,0.1076,0.1117,0.1134,0.112,0.1147,0.1069,0.1041,0.1107,0.1106,0.1062,0.1056,0.1116,0.1116,0.1116,0.1116,0,0.0268,0.0298,0.033,0.0393,0.0419,0.0457,0.0571,0.0619,0.0728,0.0826,0.0874,0.1001,0.1047,0.11,0.1114,0.1101,0.1078,0.1045,0.113,0.1106,0.0984,0.0984,0.096,0.0957,0.0956,0.0954,0.0953,0,0.0253,0.0261,0.0332,0.0357,0.0394,0.0467,0.0508,0.0621,0.0678,0.0818,0.0849,0.0942,0.1011,0.1,0.1045,0.1039,0.1019,0.1002,0.0991,0.0993,0.0968,0.0971,0.0973,0.095,0.0949,0.0949,0.0948,0,0.0221,0.025,0.0285,0.0332,0.0379,0.0431,0.0506,0.055,0.0663,0.0761,0.0825,0.0873,0.0911,0.095,0.0956,0.0946,0.1022,0.0982,0.0986,0.0975,0.098,0.0959,0.0963,0.0942,0.0943,0.0943,0.0944,0,0.0201,0.0214,0.0262,0.0303,0.0349,0.0381,0.0432,0.0496,0.0571,0.0717,0.0723,0.0813,0.0891,0.0898,0.0901,0.0902,0.0883,0.0853,0.0863,0.0871,0.0852,0.0846,0.0746,0,0,0,0,0,0.0182,0.0195,0.0225,0.0274,0.0314,0.0342,0.0415,0.0467,0.057,0.0591,0.0668,0.0701,0.0747,0.0793,0.0774,0.0842,0.0872,0.0815,0.0838,0.0906,0.0913,0.0901,0,0,0,0,0,0,0.0168,0.0198,0.0215,0.024,0.0261,0.0302,0.0339,0.0402,0.0432,0.0538,0.0568,0.065,0.0701,0.0748,0.0759,0.077,0.0767,0.087,0.0868,0.0901,0.0908,0.0914,0.0905,0,0,0,0,0]},{"header":{"parameterUnit":"m.s-1","parameterCategory":2,"la1":30.2991,"la2":30.254,"lo1":-89.0895,"lo2":-89.0444,"dy":0.0017,"dx":0.0017,"nx":28,"ny":28,"refTime":"2024-02-01T03:00:00:Z","depth":"4","parameterNumber":3,"parameterNumberName":"V-component_of_CURRENTS"},"data":[0,0,0,0,0,0,0,0,0,0,0,0,0,0,0,0,0,0,0,0,0,0,0,0,0,0,0,0,0,0,0,0,0,0,0,0,0,0,0,0,0,0,0,0,0,0,0,0,0,0,0,0,0,0,0,0,0,0,0.0321,0.0322,0,0.035,0.035,0.035,0.0356,0.0356,0.0356,0.0356,0.0292,0.029,0.0289,0,0,0,0,0,0,0,0,0,0,0,0,0,0.0207,0.0209,0.0321,0.0322,0.0322,0.035,0.035,0.035,0.0356,0.0356,0.0356,0.0356,0.0293,0.0291,0.0289,0,0,0,0,0,0,0,0,0,0,0,0,0,0.0246,0.021,0.0321,0.033,0.0331,0.035,0.035,0.035,0.0356,0.0356,0.0356,0.0356,0.0293,0.0291,0.0288,0.0274,0,0,0.0281,0.028,0,0,0,0,0,0,0,0,0.0244,0.025,0.0328,0.033,0.0331,0.0351,0.0286,0.0321,0.0356,0.0345,0.0356,0.0356,0.0304,0.0301,0.0305,0.0271,0.0268,0.028,0.0279,0.0278,0.0277,0,0,0,0,0,0,0,0.0241,0.0249,0.0331,0.0329,0.0331,0.031,0.0316,0.0293,0.0321,0.0346,0.0347,0.0353,0.0304,0.0308,0.0303,0.0267,0.028,0.0278,0.0277,0.0276,0.0214,0.0214,0,0,0,0,0,0,0.0246,0.0247,0.033,0.0332,0.0289,0.0313,0.0319,0.0343,0.0324,0.0322,0.0353,0.0353,0.0312,0.0306,0.0301,0.0279,0.0278,0.0275,0.0274,0.0214,0.0214,0.0213,0,0,0,0,0,0,0.0244,0.0254,0.0329,0.029,0.0298,0.0316,0.0342,0.0344,0.0364,0.033,0.0327,0.0373,0.0312,0.0304,0.0284,0.0277,0.0274,0.0272,0.0214,0.0214,0.0214,0.0237,0,0,0,0,0,0,0.0241,0.0253,0.0274,0.0291,0.0301,0.0351,0.0342,0.0344,0.0368,0.0369,0.0346,0.034,0.0311,0.0288,0.0282,0.0273,0.027,0.0214,0.0214,0.0214,0.0237,0.0238,0.0239,0,0,0,0,0,0.0237,0.0276,0.0276,0.0285,0.0329,0.0352,0.0355,0.0364,0.0369,0.0382,0.0359,0.0341,0.0282,0.0286,0.0279,0.0269,0.0214,0.0214,0.0214,0.0236,0.0238,0.0239,0,0,0,0,0,0,0.0251,0.0281,0.0281,0.0331,0.0341,0.0354,0.0375,0.0378,0.0374,0.0372,0.0341,0.0332,0.0308,0.029,0.0296,0.0251,0.0244,0.0243,0.0264,0.0265,0.0266,0.0276,0.0268,0,0,0,0,0,0.026,0.0294,0.0309,0.035,0.0358,0.0367,0.038,0.0382,0.038,0.0381,0.0359,0.0331,0.0299,0.0286,0.0255,0.0237,0.0219,0.0225,0.0226,0.0228,0.023,0.0204,0.0203,0.0212,0.0212,0.0212,0,0,0.0284,0.03,0.0325,0.0354,0.0365,0.0376,0.0375,0.04,0.0408,0.0371,0.0373,0.0335,0.0295,0.0266,0.0254,0.0252,0.0214,0.0227,0.0228,0.0231,0.0204,0.0203,0.0202,0.0212,0.0212,0.0212,0,0,0.0324,0.0356,0.0381,0.0387,0.0399,0.0401,0.0412,0.0421,0.0427,0.0418,0.0385,0.0351,0.0314,0.0279,0.0257,0.0251,0.022,0.0235,0.025,0.0224,0.0223,0.0222,0.0194,0.0191,0.0238,0.0238,0.0238,0,0.0347,0.0379,0.0392,0.0402,0.0413,0.0415,0.043,0.0437,0.0434,0.0432,0.0423,0.0356,0.0321,0.0282,0.0267,0.0254,0.023,0.0248,0.0226,0.0225,0.0224,0.0195,0.0191,0.0239,0.0239,0.0239,0.0239,0,0.0379,0.0408,0.0427,0.0436,0.0448,0.0469,0.0469,0.0473,0.0472,0.0466,0.0438,0.0387,0.0344,0.0323,0.0288,0.0253,0.0236,0.023,0.0225,0.0224,0.0194,0.0189,0.0241,0.024,0.024,0.024,0,0,0.0422,0.0446,0.0451,0.0455,0.0468,0.0478,0.0492,0.0498,0.0501,0.0484,0.0477,0.0416,0.0384,0.0356,0.0307,0.0279,0.0238,0.0245,0.0243,0.0221,0.0172,0.0143,0.0135,0.0222,0.0222,0.0221,0.0154,0,0.0441,0.0465,0.0473,0.0497,0.051,0.0511,0.0522,0.0522,0.0516,0.0504,0.0467,0.0435,0.0401,0.0363,0.0331,0.025,0.0226,0.0257,0.0173,0.0171,0.0148,0.0129,0.0219,0.015,0.0149,0.0148,0.0147,0,0.0452,0.047,0.0499,0.0518,0.0525,0.0539,0.0545,0.0555,0.0541,0.0532,0.0501,0.0461,0.0401,0.0379,0.0277,0.0292,0.0236,0.0189,0.0186,0.0148,0.0132,0.015,0.0138,0.0139,0.0139,0.014,0.0141,0,0.0448,0.0482,0.0508,0.0515,0.0538,0.0553,0.0567,0.0565,0.0575,0.0549,0.0532,0.0472,0.0425,0.0358,0.0249,0.0256,0.014,0.0144,0.0076,0.0074,0.0111,0.0113,0.0093,0.0093,0.0093,0.0093,0.0093,0,0.0453,0.0471,0.0512,0.0524,0.0553,0.0565,0.0591,0.0589,0.0591,0.0589,0.0546,0.051,0.0414,0.0332,0.0253,0.0137,0.0146,0.0072,0.0052,0.0122,0.0126,0.0107,0.011,0.009,0.0091,0.0092,0.0092,0,0.0438,0.0466,0.0494,0.0535,0.0552,0.0572,0.0621,0.0631,0.0629,0.0618,0.0607,0.0529,0.0414,0.0318,0.0189,0.0133,0.0035,0.0,0.0072,0.0059,-0.0012,-0.0007,-0.0078,-0.008,-0.0081,-0.0082,-0.0083,0,0.0428,0.0443,0.0501,0.0524,0.0551,0.0593,0.0621,0.0648,0.0656,0.0622,0.0604,0.0502,0.0435,0.0237,0.0139,-0.0003,-0.0016,-0.0059,-0.0026,-0.0019,-0.0031,-0.0024,-0.0017,-0.0085,-0.0086,-0.0086,-0.0086,0,0.041,0.0437,0.0467,0.0518,0.056,0.0603,0.0643,0.065,0.0663,0.0661,0.0583,0.0484,0.0353,0.0216,0.0099,0.0004,-0.003,-0.0074,-0.0071,-0.004,-0.0028,-0.0037,-0.003,-0.0091,-0.0091,-0.009,-0.009,0,0.0399,0.0416,0.0462,0.0504,0.0556,0.0593,0.0621,0.0626,0.0638,0.0605,0.0574,0.045,0.0383,0.0218,0.0111,0.0007,-0.0007,-0.0023,-0.0023,-0.0019,0.0019,0.0044,-0.002,0,0,0,0,0,0.0388,0.0408,0.0443,0.0493,0.0543,0.0576,0.0621,0.0644,0.0655,0.0599,0.0592,0.0471,0.03,0.0224,0.0114,0.0088,-0.0024,-0.0043,-0.0041,-0.0118,-0.0112,-0.0081,0,0,0,0,0,0,0.0381,0.0416,0.0435,0.0478,0.0507,0.0563,0.0594,0.0604,0.0575,0.0568,0.0474,0.0444,0.0274,0.0355,0.0108,0.0077,0.0065,-0.0118,-0.012,-0.0121,-0.0116,-0.0112,-0.0078,0,0,0,0,0]}]]